Location: Unspecified
(51.0459°N, 0.0000°E)
Time: 18:38:13
(UTC+00:00)

ISS - Pass Details

Date: 02 June 2019
Orbit: 408 x 418 km, 51.6° (Epoch: 19 June)

Event Time Altitude Azimuth Distance (km) Brightness Sun altitude
Rises 21:12:13 0° 282° (WNW) 2,356 0.9 -8.2°
Reaches altitude 10° 21:14:43 10° 264° (W) 1,492 -0.5 -8.4°
Maximum altitude 21:17:07 19° 218° (SW) 1,080 -1.8 -8.6°
Drops below altitude 10° 21:19:31 10° 172° (S) 1,490 -1.5 -8.9°
Enters shadow 21:19:34 10° 171° (S) 1,502 -1.5 -8.9°
